Location: Linz
(48.3300°N, 14.3000°E)
Time: 00:23:58
(UTC+01:00)

N. Korean satellite - Pass Details

Date: 15 November 2017
Orbit: 461 x 513 km, 97.2° (Epoch: 11 December)

Event Time Altitude Azimuth Distance (km) Brightness Sun altitude
Rises 18:06:56 0° 173° (S) 2,483 10.2 -17.0°
Reaches altitude 10° 18:08:59 10° 177° (S) 1,618 9.3 -17.3°
Maximum altitude 18:12:25 62° 259° (W) 533 7.0 -17.9°
Drops below altitude 10° 18:15:56 10° 341° (NNW) 1,655 9.4 -18.5°
Sets 18:18:03 0° 345° (NNW) 2,548 10.3 -18.8°
